Voltar ao catálogo

ATLAS 14E R/B

AtivoHEO
NORAD 15272·ROCKET BODY·🇺🇸 United States

Lançado Sep 8, 1984 de Vandenberg Space Force Base

Loading…

Próximas Passagens (próximas 24 horas)

TLE

AtualizadoSource: Space-Track

Época: Sep 13, 2026, 04:33 UTC

1 15272U 84097B   26256.19004220 -.00000011  00000-0  00000-0 0  9997
2 15272  64.9645 273.6880 5172621 282.0338  81.2882  3.90011429598366

Acompanhe ATLAS 14E R/B em tempo real com AllMySat

Download on the App Store